Flag for U.S.A. Weather past 2 weeks in Bozeman, Montana, U.S.A.

Now
54 °F

Overcast.


Feels Like: 54 °F
Forecast: 47 / 55 °F
Wind: No wind

Location: Gallatin Field

Current Time: Aug 23, 2014 at 2:11:19 AM

Latest Report: Aug 23, 2014 at 12:56 AM


Visibility: 10 mi

Pressure: 30.00 "Hg

Humidity: 90%

Dew point: 51 °F

Location of BozemanLocation

Historic Weather in Bozeman — Graph

°F

Bozeman temperature yesterday

Maximum temperature yesterday: 64 °F (at 2:56 PM)
Minimum temperature yesterday: 50 °F (at 4:56 AM)
Average temperature yesterday: 55 °F

Past Weeks' High & Low Weather Summary

 TemperatureHumidityPressure
High91 °F (Aug 11, 4:56 PM)97% (Aug 16, 4:56 AM)30.20 "Hg (Aug 16, 4:56 AM)
Low46 °F (Aug 18, 4:56 AM)14% (Aug 11, 5:56 PM)29.67 "Hg (Aug 19, 2:56 PM)
Average66 °F58%29.98 "Hg
* Reported Aug 8 12:56 AM — Aug 23 12:56 AM, Bozeman, Weather by CustomWeather, © 2014

Note: Actual official high and low records may vary slightly from our data, if they occured in-between our weather recording intervals... More about our weather records

Advertising

Bozeman weather history for previous 24 hours

 ConditionsComfort  
Time TempWeatherWind HumidityBarometerVisibility
12:56 AM
Aug 23
54 °FOvercast.No wind90%30.00 "Hg10 mi
11:56 PM
Aug 22
54 °FOvercast.5 mph90%30.03 "Hg10 mi
10:56 PM53 °FLight rain. Overcast.No wind93%30.03 "Hg10 mi
9:56 PM54 °FLight rain. Overcast.3 mph90%30.05 "Hg10 mi
8:56 PM53 °FLight rain. Overcast.8 mph89%30.05 "Hg8 mi
7:56 PM55 °FMostly cloudy.3 mph87%30.04 "Hg10 mi
6:56 PM56 °FBroken clouds.7 mph77%30.03 "Hg10 mi
5:56 PM59 °FCloudy.6 mph67%30.02 "Hg10 mi
4:56 PM60 °FCloudy.16 mph69%30.00 "Hg10 mi
3:56 PM63 °FPartly sunny.9 mph60%29.98 "Hg10 mi
2:56 PM64 °FBroken clouds.5 mph56%29.99 "Hg10 mi
1:56 PM63 °FBroken clouds.3 mph60%29.99 "Hg10 mi
12:56 PM61 °FBroken clouds.8 mph67%30.02 "Hg10 mi
12:03 PM57 °FScattered clouds.5 mph81%30.08 "Hg9 mi
11:56 AM57 °FPartly sunny.6 mph81%30.03 "Hg9 mi
10:56 AM55 °FMore clouds than sun.No wind80%30.05 "Hg10 mi
9:56 AM54 °FMore clouds than sun.No wind83%30.06 "Hg10 mi
8:56 AM53 °FMostly cloudy.6 mph93%30.04 "Hg10 mi
7:56 AM51 °FBroken clouds.6 mph92%30.03 "Hg10 mi
6:56 AM51 °FLight rain. Passing clouds.6 mph92%30.04 "Hg10 mi
5:56 AM50 °FLight rain. Mostly cloudy.12 mph96%30.05 "Hg7 mi
4:56 AM50 °FHeavy rain. Fog.8 mph96%30.06 "Hg1 mi
3:56 AM51 °FLight rain. Fog.16 mph92%30.06 "Hg4 mi
2:56 AM52 °FMostly cloudy.7 mph97%30.04 "Hg10 mi
Weather by CustomWeather, © 2014

See weather overviewHow to use our weather pages